SOYUZ-MS 09

Last updated on Thu Dec 20 2018 00:02:08 GMT+0000 (Coordinated Universal Time)

1 43493U 18051A 18352.59398947 .00003451 00000-0 59455-4 0 9996 2 43493 51.6392 179.7278 0005030 156.9234 283.7387 15.54083453 30357

Satellite not in orbit

SOYUZ-MS 09